Location: McFarlands Corners
(41.4117°N, 81.3382°W)
Time: 20:40:51
(UTC+00:00)

SR - Pass Details

Date: 16 February 2026
Orbit: 573 x 848 km, 66.7° (Epoch: 6 March)

Event Time Altitude Azimuth Distance (km) Brightness Sun altitude
Rises 19:53:25 0° 321° (NW) 3,112 ? 28.2°
Reaches altitude 10° 19:55:50 10° 313° (NW) 2,234 ? 27.9°
Maximum altitude 20:00:30 37° 248° (WSW) 1,187 ? 27.4°
Drops below altitude 10° 20:05:29 10° 182° (S) 2,375 ? 26.8°
Sets 20:08:08 0° 174° (S) 3,334 ? 26.5°
